World > North America > United States > Iowa > Marquisville

Hourly Marquisville, IA Regional Weather

Feedback E-mail the Weather

Quick WX

Marquisville, IA Weather Maps

°F °C°F °C
Marquisville Weather Map
UTC Time: 8/9/2022, 23:43
Your Time:

Marquisville, IA Regional Weather

Expires:202208100000;;759533
ASUS43 KEAX 092315
RWREAX

WEATHER ROUNDUP FOR EASTERN KANSAS AND NORTHWEST MISSOURI
NATIONAL WEATHER SERVICE KANSAS CITY/PLEASANT HILL MO
600 PM CDT TUE AUG 09 2022


IAZ060-094-KSZ022-034>040-054-083-096-NEZ052-066-093-100000- 
...KANSAS...SOUTHEAST NEBRASKA AND IOWA...
  
CITY           SKY/WX    TMP DP  RH WIND       PRES   REMARKS
TOPEKA         SUNNY     87  64  46 SE5       30.03F                  
MANHATTAN      SUNNY     87  62  43 E6        30.04F                  
EMPORIA        SUNNY     89  63  41 NE9       30.04S HX  90           
OTTAWA         FAIR      88  64  45 E8        30.03S                  
CHANUTE        MOSUNNY   94  65  38 N8        30.00F HX  96           
SALINA         SUNNY     91  52  26 E10       30.05S                  
WICHITA        MOSUNNY   95  50  21 NE13G23   30.01S HX  92           
OMAHA          SUNNY     86  61  42 SE7       30.05F                  
LINCOLN        SUNNY     90  60  36 SE7       30.05F                  
FALLS CITY     SUNNY     83  64  52 VRB6      30.05F                  
DES MOINES     SUNNY     83  59  44 E6        30.07F                  

$$

  

SKY/WX - Weather  TMP - Temperature  DP - Dew Point  RH - Humidity
WIND - Wind Direction/Speed PRES - Barometric Pressure VSB - Visibility
WCI - Wind Chill Index E13G22 Wind - East Wind 13 mph/Gusts of 22 mph

Trending Headlines

Marquisville Radar Loop



Marquisville Quick Facts


National Two Day Weather Forecast


E-mail the Marquisville Weather Forecast

Voice your opinion or tell us about page issues...